Voltar ao catálogo

GEESAT 5-01

AtivoComunicaçõesLEO
NORAD 65550·PAYLOAD·🇨🇳 China

Lançado Sep 8, 2025 de Yellow Sea Launch Area

Loading…

Próximas Passagens (próximas 24 horas)

TLE

AtualizadoSource: Space-Track

Época: Sep 14, 2026, 14:31 UTC

1 65550U 25201A   26257.60489121  .00001120  00000-0  15860-3 0  9991
2 65550  49.9935 344.7770 0002786  28.1252 331.9836 14.84394017 55089

Acompanhe GEESAT 5-01 em tempo real com AllMySat

Download on the App Store